x

Walney Island (03214) Weather Station

7:00 - Mon 22nd Dec 2014 All times are GMT.

  • Wind
    22mph, 36mph gusts
  • Luft Temp 50°f
  • Sea Pressure 1008mb
  • Walney Island
  • Walney Island

More Historic Weather Station data

Upgrade to MSW Pro to gain access to the past 30 days of data for over 8000 Wavebouys and Weather Stations around the globe.

Join Pro

Comparision Forecast

View Surf forecast
   
Mo 12/22 7:00 22 36 mph 1008mb 50f
6:00 24 37 mph 1008mb 51f
5:00 21 32 mph 1008mb 50f
4:00 21 34 mph 1008mb 51f
3:00 24 39 mph 1008mb 51f
2:00 26 37 mph 1007mb 51f
1:00 24 37 mph 1008mb 51f
12:00 25 39 mph 1008mb 52f
11:00 26 45 mph 1008mb 51f
10:00 29 40 mph 1008mb 51f
9:00 28 38 mph 1008mb 51f
8:00 25 39 mph 1008mb 50f
7:00 30 40 mph 1007mb 51f
6:00 23 36 mph 1007mb 51f
5:00 21 37 mph 1008mb 51f
4:00 28 41 mph 1008mb 52f
3:00 24 36 mph 1008mb 51f
2:00 22 33 mph 1009mb 51f
1:00 21 30 mph 1010mb 51f
12:00 19 31 mph 1010mb 51f
So 12/21 11:00 19 31 mph 1011mb 51f
9:00 22 31 mph 1012mb 51f
8:00 21 33 mph 1012mb 51f
7:00 18 32 mph 1013mb 51f
6:00 19 33 mph 1013mb 51f
5:00 19 34 mph 1013mb 51f
4:00 22 36 mph 1013mb 51f
3:00 23 36 mph 1014mb 51f
2:00 23 33 mph 1015mb 50f
1:00 24 33 mph 1016mb 50f
12:00 24 36 mph 1016mb 50f
11:00 22 33 mph 1017mb 50f
9:00 21 31 mph 1019mb 48f
8:00 19 30 mph 1019mb 47f
7:00 19
mph
1021mb 47f
6:00 14
mph
1021mb 47f
5:00 16
mph
1022mb 46f
4:00 18
mph
1023mb 46f
3:00 13
mph
1024mb 46f
2:00 11
mph
1025mb 47f
1:00 13
mph
1025mb 47f
12:00 17
mph
1025mb 47f
Sa 12/20 11:00 15
mph
1026mb 47f
10:00 14
mph
1026mb 47f
9:00 14
mph
1026mb 47f
8:00 15
mph
1026mb 47f
7:00 15
mph
1026mb 47f
6:00 13
mph
1026mb 46f
5:00 14
mph
1026mb 47f
4:00 16 29 mph 1025mb 45f
3:00 8 31 mph 1024mb 45f
2:00 22 33 mph 1024mb 46f
1:00 26 34 mph 1023mb 46f
12:00 23 41 mph 1022mb 47f
11:00 25 40 mph 1021mb 46f
10:00 32 45 mph 1020mb 46f
9:00 32 48 mph 1019mb 46f
8:00 31 47 mph 1019mb 47f
7:00 33 45 mph 1018mb 46f
6:00 29 46 mph 1017mb 46f
5:00 29 47 mph 1017mb 46f
4:00 29 43 mph 1017mb 46f
3:00 28 41 mph 1018mb 46f
2:00 26 43 mph 1017mb 45f
1:00 29 40 mph 1017mb 47f
12:00 26 37 mph 1017mb 46f
Fr 12/19 11:00 25 36 mph 1017mb 47f
10:00 22 37 mph 1017mb 47f
9:00 24 36 mph 1016mb 47f
8:00 24 38 mph 1016mb 46f
7:00 26 43 mph 1015mb 46f
6:00 25 38 mph 1014mb 46f
5:00 24 39 mph 1013mb 46f
4:00 23 36 mph 1013mb 46f
3:00 24 38 mph 1012mb 46f
2:00 25 39 mph 1011mb 46f
1:00 26 40 mph 1011mb 46f
12:00 29 40 mph 1010mb 46f
11:00 28 40 mph 1010mb 46f
10:00 26 39 mph 1009mb 46f
9:00 28 45 mph 1008mb 45f
8:00 26 41 mph 1007mb 44f
7:00 24 37 mph 1006mb 45f
6:00 23 37 mph 1006mb 46f
5:00 23 36 mph 1005mb 46f
4:00 21 34 mph 1005mb 46f
3:00 24 33 mph 1004mb 46f
2:00 22 30 mph 1004mb 46f
1:00 19 32 mph 1004mb 47f
12:00 18
mph
1003mb 47f
Do 12/18 11:00 16
mph
1003mb 48f
10:00 13
mph
1002mb 48f
9:00 15
mph
1002mb 49f
8:00 22
mph
1001mb 50f